This is the latest recevied weather packets stored in our database for station/object SQ7IQO. If no packets are shown the sender has not sent any weather packets the latest 10 day(s).
| Time | Temp. | Humidity | Pressure | Rain* | Wind** | Luminosity | Snow |
|---|---|---|---|---|---|---|---|
| 1787652216 | 20° C | 61% | 1022.1 hPa | 0 mm | 0.45 m/s, ° | - | - |
| 1787652156 | 20° C | 61% | 1022.1 hPa | 0 mm | 0.45 m/s, ° | - | - |
| 1787652096 | 19.44° C | 63% | 1022.1 hPa | 0 mm | 0 m/s | - | - |
| 1787652036 | 19.44° C | 62% | 1022.1 hPa | 0 mm | 0 m/s | - | - |
| 1787651976 | 19.44° C | 65% | 1022.1 hPa | 0 mm | 0 m/s | - | - |
| 1787651916 | 19.44° C | 61% | 1022.1 hPa | 0 mm | 0 m/s | - | - |
| 1787651856 | 20° C | 61% | 1022.1 hPa | 0 mm | 0.45 m/s, ° | - | - |
| 1787651796 | 20° C | 61% | 1022.1 hPa | 0 mm | 0 m/s | - | - |
| 1787651736 | 20.56° C | 59% | 1022.1 hPa | 0 mm | 0 m/s | - | - |
| 1787651676 | 21.11° C | 56% | 1022.1 hPa | 0 mm | 0.45 m/s, ° | - | - |
| 1787651616 | 21.11° C | 58% | 1022.1 hPa | 0 mm | 0 m/s | - | - |
| 1787651556 | 21.67° C | 56% | 1022.1 hPa | 0 mm | 0.45 m/s, ° | - | - |
| 1787651496 | 21.67° C | 61% | 1022.1 hPa | 0 mm | 0.45 m/s, ° | - | - |
| 1787651436 | 21.11° C | 61% | 1022.1 hPa | 0 mm | 0 m/s | - | - |
| 1787651376 | 20.56° C | 60% | 1022.1 hPa | 0 mm | 0 m/s | - | - |
| 1787651316 | 20° C | 62% | 1022.1 hPa | 0 mm | 0 m/s | - | - |
| 1787651256 | 19.44° C | 66% | 1022.1 hPa | 0 mm | 0.45 m/s, ° | - | - |
| 1787651196 | 19.44° C | 63% | 1022.1 hPa | 0 mm | 0.45 m/s, ° | - | - |
| 1787651136 | 20° C | 62% | 1022.1 hPa | 0 mm | 0 m/s | - | - |
| 1787651076 | 20° C | 62% | 1022.1 hPa | 0 mm | 0 m/s | - | - |
| 1787651016 | 20° C | 62% | 1022.1 hPa | 0 mm | 0 m/s | - | - |
| 1787650956 | 20° C | 61% | 1022.1 hPa | 0 mm | 0 m/s | - | - |
| 1787650896 | 20.56° C | 63% | 1022.1 hPa | 0 mm | 0.45 m/s, ° | - | - |
| 1787650836 | 20.56° C | 59% | 1022.1 hPa | 0 mm | 0 m/s | - | - |
| 1787650776 | 20.56° C | 62% | 1022.1 hPa | 0 mm | 0 m/s | - | - |
* Rain latest hour (hover to see other rain measurements)
** Current wind speed in m/s (hover to see current wind gust speed)